Weather History for McAllen, TX

Change the Weather History Date:

Friday, February 3, 2012

  Actual Average Record
Temperature  
Mean Temperature 79 °F 63 °F  
Max Temperature 87 °F 73 °F 93 °F (2006)
Min Temperature 71 °F 52 °F 19 °F (1888)
Degree Days  
Heating Degree Days 0 5  
Month to date heating degree days 0 15  
Since 1 July heating degree days 280 442  
Cooling Degree Days 14 3  
Month to date cooling degree days 34 7  
Year to date cooling degree days 146 69  
Growing Degree Days 28 (Base 50)    
Moisture  
Dew Point 68 °F    
Average Humidity 69    
Maximum Humidity 90    
Minimum Humidity 48    
Precipitation  
Precipitation 0.00 in 0.05 in 2.46 in (1986)
Month to date precipitation 0.01 0.14  
Year to date precipitation 0.22 1.19  
Sea Level Pressure  
Sea Level Pressure 29.90 in    
Wind  
Wind Speed 16 mph (SE)    
Max Wind Speed 25 mph    
Max Gust Speed 33 mph    
Visibility 10 miles    
Events      
T = Trace of Precipitation, MM = Missing Value Source: NWS Daily Summary

Daily Weather History Graph

Daily Weather History Graph

Search for Another Location

Airport:

Trip Planner

Search our weather history database for the weather conditions in past years. The results will help you decide how hot, cold, wet, or windy it might be!

Date:

Astronomy

Feb. 03, 2012 Rise Set
Actual Time 7:16 AM CST 6:17 PM CST
Civil Twilight 6:52 AM CST 6:41 PM CST
Nautical Twilight 6:24 AM CST 7:08 PM CST
Astronomical Twilight 5:57 AM CST 7:36 PM CST
Moon 2:31 PM CST (2/3) 3:41 AM CST (2/3)
Length of Visible Light 11h 48m
Length of Day
11h 00m
Waxing Gibbous, 82% of the Moon is Illuminated
Feb 3
Waxing Gibbous
Feb 7
Full
Feb 14
Last Quarter
Feb 21
New
Feb 29
First Quarter

Hourly Weather History & Observations

Time (CST) Temp. Heat Index Dew Point Humidity Pressure Visibility Wind Dir Wind Speed Gust Speed Precip Events Conditions
12:44 AM 71.6 °F - 68.0 °F 88% 29.91 in 10.0 mi SE 13.8 mph - N/A   Overcast
12:53 AM 72.0 °F - 68.0 °F 87% 29.91 in 10.0 mi SE 17.3 mph - N/A   Overcast
1:53 AM 72.0 °F - 68.0 °F 87% 29.90 in 10.0 mi SSE 11.5 mph 20.7 mph N/A   Overcast
2:53 AM 72.0 °F - 68.0 °F 87% 29.90 in 10.0 mi SSE 12.7 mph 21.9 mph N/A   Mostly Cloudy
3:40 AM 71.6 °F - 68.0 °F 88% 29.89 in 10.0 mi SE 17.3 mph 24.2 mph N/A   Overcast
3:53 AM 71.1 °F - 66.9 °F 87% 29.88 in 10.0 mi SE 17.3 mph - N/A   Mostly Cloudy
4:05 AM 71.6 °F - 68.0 °F 88% 29.89 in 10.0 mi SE 15.0 mph 23.0 mph N/A   Partly Cloudy
4:53 AM 72.0 °F - 68.0 °F 87% 29.89 in 10.0 mi SSE 13.8 mph - N/A   Partly Cloudy
5:26 AM 71.6 °F - 68.0 °F 88% 29.91 in 10.0 mi SE 10.4 mph - N/A   Mostly Cloudy
5:34 AM 71.6 °F - 68.0 °F 88% 29.90 in 10.0 mi SE 9.2 mph - N/A   Mostly Cloudy
5:40 AM 71.6 °F - 68.0 °F 88% 29.90 in 10.0 mi SE 11.5 mph - N/A   Mostly Cloudy
5:53 AM 72.0 °F - 68.0 °F 87% 29.89 in 10.0 mi SE 13.8 mph 20.7 mph N/A   Overcast
6:27 AM 71.6 °F - 68.0 °F 88% 29.90 in 10.0 mi SE 16.1 mph - N/A   Scattered Clouds
6:38 AM 71.6 °F - 68.0 °F 88% 29.90 in 10.0 mi SSE 13.8 mph - N/A   Mostly Cloudy
6:53 AM 72.0 °F - 68.0 °F 87% 29.91 in 10.0 mi SE 15.0 mph - N/A   Mostly Cloudy
7:01 AM 71.6 °F - 68.0 °F 88% 29.92 in 10.0 mi SE 13.8 mph - N/A   Mostly Cloudy
7:53 AM 72.0 °F - 68.0 °F 87% 29.94 in 10.0 mi SE 11.5 mph - N/A   Overcast
8:53 AM 73.9 °F - 68.0 °F 82% 29.95 in 10.0 mi SSE 16.1 mph 23.0 mph N/A   Mostly Cloudy
9:27 AM 75.2 °F - 68.0 °F 78% 29.96 in 10.0 mi SSE 17.3 mph - N/A   Mostly Cloudy
9:53 AM 75.9 °F - 68.0 °F 76% 29.96 in 10.0 mi SSE 18.4 mph 23.0 mph N/A   Mostly Cloudy
10:53 AM 78.1 °F - 66.9 °F 68% 29.95 in 10.0 mi SSE 20.7 mph 26.5 mph N/A   Mostly Cloudy
11:42 AM 80.6 °F 82.7 °F 66.2 °F 61% 29.93 in 10.0 mi SSE 20.7 mph 33.4 mph N/A   Scattered Clouds
11:53 AM 82.0 °F 84.5 °F 66.9 °F 60% 29.91 in 10.0 mi SSE 19.6 mph 32.2 mph N/A   Scattered Clouds
12:53 PM 86.0 °F 87.6 °F 64.9 °F 49% 29.88 in 10.0 mi South 18.4 mph 26.5 mph N/A   Partly Cloudy
1:53 PM 86.0 °F 87.3 °F 64.0 °F 48% 29.84 in 10.0 mi SSE 23.0 mph 31.1 mph N/A   Clear
2:53 PM 86.0 °F 88.2 °F 66.0 °F 51% 29.83 in 10.0 mi SSE 20.7 mph 32.2 mph N/A   Mostly Cloudy
3:53 PM 84.9 °F 87.6 °F 66.9 °F 55% 29.83 in 10.0 mi SE 19.6 mph 27.6 mph N/A   Clear
4:53 PM 82.9 °F 85.4 °F 66.9 °F 58% 29.83 in 10.0 mi SSE 19.6 mph 27.6 mph N/A   Clear
5:53 PM 79.0 °F - 66.9 °F 66% 29.85 in 10.0 mi SE 15.0 mph - N/A   Clear
6:53 PM 75.9 °F - 66.9 °F 74% 29.88 in 10.0 mi SE 16.1 mph - N/A   Clear
7:53 PM 73.9 °F - 66.9 °F 79% 29.90 in 10.0 mi SE 13.8 mph - N/A   Clear
8:30 PM 73.4 °F - 68.0 °F 83% 29.91 in 10.0 mi SE 16.1 mph 24.2 mph N/A   Mostly Cloudy
8:53 PM 73.9 °F - 68.0 °F 82% 29.91 in 9.0 mi SE 13.8 mph - N/A   Mostly Cloudy
9:25 PM 73.4 °F - 68.0 °F 83% 29.92 in 8.0 mi SE 16.1 mph - N/A   Scattered Clouds
9:44 PM 73.4 °F - 68.0 °F 83% 29.93 in 8.0 mi SE 15.0 mph - N/A   Mostly Cloudy
9:53 PM 73.0 °F - 69.1 °F 87% 29.92 in 8.0 mi SSE 15.0 mph - N/A   Mostly Cloudy
10:53 PM 73.0 °F - 69.1 °F 87% 29.93 in 8.0 mi SE 16.1 mph - N/A   Overcast
11:53 PM 73.0 °F - 69.1 °F 87% 29.94 in 9.0 mi SSE 13.8 mph - N/A   Overcast